When you browse on this site, cookies collect data to enhance your experience and personalize the content and advertising you see.
Visit our Privacy Policy to learn more. By continuing to use the site, you agree to this use of cookies and data.
  • En España
  • Lista de países
  • Para 7 días
  • Temperatura del agua
  • El tiempo en el mapa
  • Informadores
  • user-avatar
    Iniciar sesión

    Tiempo cada hora Salamanca

    Hoy, 22 Enero, Miércoles

    Tiempo Temperatura Precipitaciones Viento Presión Humedad
    00:00 +18°C° 0 mm 0 mps 715 mmHg 82%
    01:00 +18°C° 0 mm 0 mps 715 mmHg 84%
    02:00 +17°C° 0 mm 0 mps 715 mmHg 84%
    03:00 +17°C° 0 mm 0 mps 715 mmHg 84%
    04:00 +17°C° 0 mm 0 mps 715 mmHg 85%
    05:00 +19°C° 0 mm 0 mps 715 mmHg 76%
    06:00 +24°C° 0 mm 1 mps 716 mmHg 66%
    07:00 +26°C° 0 mm 1 mps 716 mmHg 57%
    08:00 +28°C° 0 mm 2 mps 717 mmHg 52%
    09:00 +30°C° 0 mm 2 mps 717 mmHg 47%
    10:00 +31°C° 0 mm 3 mps 717 mmHg 42%
    11:00 +33°C° 0 mm 4 mps 717 mmHg 41%
    12:00 +34°C° 0 mm 4 mps 717 mmHg 39%
    13:00 +34°C° 0 mm 4 mps 717 mmHg 38%
    14:00 +33°C° 0 mm 4 mps 716 mmHg 40%
    15:00 +32°C° 0 mm 4 mps 716 mmHg 43%
    16:00 +30°C° 0 mm 3 mps 716 mmHg 46%
    17:00 +28°C° 0 mm 3 mps 716 mmHg 54%
    18:00 +26°C° 0 mm 2 mps 716 mmHg 62%
    19:00 +24°C° 0 mm 1 mps 716 mmHg 70%
    20:00 +23°C° 0 mm 1 mps 716 mmHg 73%
    21:00 +20°C° 0 mm 0 mps 716 mmHg 76%
    22:00 +20°C° 0 mm 0 mps 717 mmHg 79%
    23:00 +20°C° 0 mm 0 mps 716 mmHg 80%

    Mañana, 23 Enero, Jueves

    Tiempo Temperatura Precipitaciones Viento Presión Humedad
    00:00 +19°C° 0 mm 0 mps 716 mmHg 81%
    01:00 +19°C° 0 mm 0 mps 716 mmHg 82%
    02:00 +19°C° 0 mm 0 mps 716 mmHg 83%
    03:00 +19°C° 0 mm 0 mps 716 mmHg 84%
    04:00 +18°C° 0 mm 0 mps 717 mmHg 85%
    05:00 +20°C° 0 mm 0 mps 717 mmHg 77%
    06:00 +23°C° 0 mm 1 mps 717 mmHg 70%
    07:00 +25°C° 0 mm 1 mps 718 mmHg 63%
    08:00 +27°C° 0 mm 2 mps 718 mmHg 58%
    09:00 +28°C° 0 mm 2 mps 718 mmHg 52%
    10:00 +30°C° 0 mm 3 mps 718 mmHg 46%
    11:00 +31°C° 0 mm 3 mps 718 mmHg 44%
    12:00 +32°C° 0 mm 4 mps 718 mmHg 41%
    13:00 +33°C° 0 mm 4 mps 718 mmHg 38%
    14:00 +32°C° 0 mm 4 mps 717 mmHg 40%
    15:00 +32°C° 0 mm 4 mps 717 mmHg 42%
    16:00 +30°C° 0 mm 4 mps 717 mmHg 43%
    17:00 +28°C° 0 mm 3 mps 717 mmHg 50%
    18:00 +26°C° 0 mm 2 mps 717 mmHg 56%
    19:00 +24°C° 0 mm 1 mps 716 mmHg 62%
    20:00 +23°C° 0 mm 1 mps 717 mmHg 66%
    21:00 +20°C° 0 mm 0 mps 717 mmHg 70%
    22:00 +19°C° 0 mm 0 mps 717 mmHg 74%
    23:00 +19°C° 0 mm 0 mps 717 mmHg 76%

    Pasado mañana, 24 Enero, Viernes

    Tiempo Temperatura Precipitaciones Viento Presión Humedad
    00:00 +19°C° 0 mm 0 mps 716 mmHg 78%
    01:00 +18°C° 0 mm 0 mps 716 mmHg 80%
    02:00 +18°C° 0 mm 0 mps 716 mmHg 81%
    03:00 +18°C° 0 mm 0 mps 716 mmHg 82%
    04:00 +17°C° 0 mm 0 mps 716 mmHg 82%
    05:00 +19°C° 0 mm 0 mps 717 mmHg 74%
    06:00 +23°C° 0 mm 1 mps 717 mmHg 65%
    07:00 +25°C° 0 mm 1 mps 718 mmHg 56%
    08:00 +27°C° 0 mm 2 mps 718 mmHg 51%
    09:00 +29°C° 0 mm 3 mps 718 mmHg 45%
    10:00 +31°C° 0 mm 3 mps 719 mmHg 39%
    11:00 +32°C° 0 mm 4 mps 718 mmHg 37%
    12:00 +33°C° 0 mm 4 mps 718 mmHg 36%
    13:00 +33°C° 0 mm 4 mps 718 mmHg 34%
    14:00 +33°C° 0 mm 4 mps 718 mmHg 36%
    15:00 +32°C° 0 mm 4 mps 717 mmHg 38%
    16:00 +30°C° 0 mm 4 mps 717 mmHg 39%
    17:00 +28°C° 0 mm 3 mps 717 mmHg 46%
    18:00 +26°C° 0 mm 2 mps 717 mmHg 53%
    19:00 +23°C° 0 mm 1 mps 717 mmHg 60%
    20:00 +22°C° 0 mm 1 mps 717 mmHg 65%
    21:00 +19°C° 0 mm 0 mps 717 mmHg 70%
    22:00 +18°C° 0 mm 0 mps 717 mmHg 75%
    23:00 +18°C° 0 mm 0 mps 717 mmHg 75%

    25 Enero, Sábado

    Tiempo Temperatura Precipitaciones Viento Presión Humedad
    00:00 +18°C° 0 mm 0 mps 716 mmHg 76%
    01:00 +18°C° 0 mm 0 mps 716 mmHg 77%
    02:00 +17°C° 0 mm 0 mps 716 mmHg 78%
    03:00 +17°C° 0 mm 0 mps 716 mmHg 79%
    04:00 +17°C° 0 mm 0 mps 716 mmHg 81%
    05:00 +19°C° 0 mm 0 mps 716 mmHg 70%
    06:00 +22°C° 0 mm 0 mps 717 mmHg 60%
    07:00 +26°C° 0 mm 1 mps 717 mmHg 50%
    08:00 +28°C° 0 mm 2 mps 718 mmHg 45%
    09:00 +30°C° 0 mm 2 mps 718 mmHg 40%
    10:00 +31°C° 0 mm 3 mps 718 mmHg 36%
    11:00 +33°C° 0 mm 3 mps 718 mmHg 34%
    12:00 +34°C° 0 mm 4 mps 718 mmHg 33%
    13:00 +35°C° 0 mm 4 mps 718 mmHg 31%
    14:00 +34°C° 0 mm 4 mps 718 mmHg 32%
    15:00 +34°C° 0 mm 4 mps 717 mmHg 33%
    16:00 +33°C° 0 mm 4 mps 717 mmHg 35%
    17:00 +29°C° 0 mm 3 mps 717 mmHg 42%
    18:00 +26°C° 0 mm 2 mps 717 mmHg 49%
    19:00 +23°C° 0 mm 1 mps 717 mmHg 57%
    20:00 +21°C° 0 mm 0 mps 717 mmHg 61%
    21:00 +20°C° 0 mm 0 mps 717 mmHg 65%
    22:00 +19°C° 0 mm 0 mps 717 mmHg 69%
    23:00 +18°C° 0 mm 0 mps 717 mmHg 71%

    26 Enero, Domingo

    Tiempo Temperatura Precipitaciones Viento Presión Humedad
    00:00 +18°C° 0 mm 0 mps 717 mmHg 72%
    01:00 +18°C° 0 mm 0 mps 716 mmHg 74%
    02:00 +17°C° 0 mm 0 mps 716 mmHg 76%
    03:00 +17°C° 0 mm 0 mps 716 mmHg 77%
    04:00 +17°C° 0 mm 0 mps 716 mmHg 79%
    05:00 +21°C° 0 mm 1 mps 717 mmHg 69%
    06:00 +23°C° 0 mm 1 mps 718 mmHg 59%
    07:00 +26°C° 0 mm 1 mps 718 mmHg 50%
    08:00 +27°C° 0 mm 2 mps 718 mmHg 45%
    09:00 +29°C° 0 mm 3 mps 719 mmHg 41%
    10:00 +31°C° 0 mm 3 mps 719 mmHg 36%
    11:00 +32°C° 0 mm 4 mps 719 mmHg 35%
    12:00 +33°C° 0 mm 4 mps 719 mmHg 33%
    13:00 +34°C° 0 mm 4 mps 718 mmHg 31%
    14:00 +33°C° 0 mm 4 mps 718 mmHg 32%
    15:00 +33°C° 0 mm 4 mps 718 mmHg 33%
    16:00 +32°C° 0 mm 4 mps 718 mmHg 33%
    17:00 +29°C° 0 mm 3 mps 718 mmHg 40%
    18:00 +26°C° 0 mm 2 mps 718 mmHg 47%
    19:00 +23°C° 0 mm 1 mps 718 mmHg 53%
    20:00 +22°C° 0 mm 1 mps 718 mmHg 57%
    21:00 +22°C° 0 mm 1 mps 718 mmHg 60%
    22:00 +19°C° 0 mm 0 mps 717 mmHg 64%
    23:00 +18°C° 0 mm 0 mps 717 mmHg 66%

    27 Enero, Lunes

    Tiempo Temperatura Precipitaciones Viento Presión Humedad
    00:00 +18°C° 0 mm 0 mps 717 mmHg 69%
    01:00 +17°C° 0 mm 0 mps 716 mmHg 72%
    02:00 +17°C° 0 mm 0 mps 716 mmHg 73%
    03:00 +16°C° 0 mm 0 mps 716 mmHg 74%
    04:00 +16°C° 0 mm 0 mps 716 mmHg 76%
    05:00 +19°C° 0 mm 0 mps 716 mmHg 65%
    06:00 +21°C° 0 mm 0 mps 717 mmHg 54%
    07:00 +26°C° 0 mm 1 mps 718 mmHg 43%
    08:00 +28°C° 0 mm 2 mps 718 mmHg 40%
    09:00 +29°C° 0 mm 3 mps 718 mmHg 37%
    10:00 +31°C° 0 mm 3 mps 718 mmHg 33%
    11:00 +32°C° 0 mm 4 mps 718 mmHg 33%
    12:00 +33°C° 0 mm 4 mps 718 mmHg 32%
    13:00 +34°C° 0 mm 4 mps 718 mmHg 31%
    14:00 +33°C° 0 mm 4 mps 718 mmHg 33%
    15:00 +32°C° 0 mm 4 mps 717 mmHg 35%
    16:00 +32°C° 0 mm 4 mps 717 mmHg 37%
    17:00 +28°C° 0 mm 3 mps 717 mmHg 48%
    18:00 +25°C° 0 mm 2 mps 717 mmHg 58%
    19:00 +23°C° 0 mm 1 mps 717 mmHg 69%
    20:00 +22°C° 0 mm 1 mps 717 mmHg 71%
    21:00 +19°C° 0 mm 0 mps 717 mmHg 74%
    22:00 +18°C° 0 mm 0 mps 716 mmHg 77%
    23:00 +18°C° 0 mm 0 mps 716 mmHg 78%
    Mostrar más